Location: Kaarina
(60.4167°N, 22.4167°E)
Time: 07:58:01
(UTC+03:00)

Okean 1-7 Rocket - Pass Details

Date: 24 August 2019
Orbit: 617 x 649 km, 82.5° (Epoch: 14 October)

Event Time Altitude Azimuth Distance (km) Brightness Sun altitude
Rises 23:18:38 0° 347° (NNW) 2,924 8.4 -13.8°
Reaches altitude 10° 23:21:01 10° 355° (N) 2,008 7.2 -14.0°
Maximum altitude 23:25:11 39° 65° (ENE) 945 4.4 -14.2°
Enters shadow 23:27:39 21° 122° (ESE) 1,407 4.9 -14.4°
